Home > Weather > Yokosuka > Past weeks

Flag for Japan Past Weather in Yokosuka, Japan — Yesterday and Last 2 Weeks

Now
70 °F

Broken clouds.


Feels Like: 70 °F
Forecast: 71 / 81 °F
Wind: 9 mph from Northeast

Location: Tokyo International Airport

Current Time: Jun 29, 2016 at 11:00:08 AM

Latest Report: Jun 29, 2016 at 10:00 AM


Visibility: N/A

Pressure: 29.98 "Hg

Humidity: 88%

Dew Point: 66 °F

Location of YokosukaLocation

Past Weather in Yokosuka — Graph

°F

Yokosuka Temperature Yesterday

Maximum temperature yesterday: 73 °F (at 12:00 AM)
Minimum temperature yesterday: 64 °F (at 5:30 AM)
Average temperature yesterday: 68 °F

High & Low Weather Summary for the Past Weeks

 TemperatureHumidityPressure
High88 °F (Jun 18, 12:30 PM)100% (Jun 16, 8:00 PM)29.98 "Hg (Jun 16, 8:00 PM)
Low64 °F (Jun 28, 5:30 AM)35% (Jun 18, 1:00 PM)29.42 "Hg (Jun 25, 5:30 AM)
Average74 °F82%29.75 "Hg
* Reported Jun 14 10:00 AM — Jun 29 10:00 AM, Yokosuka, Weather by CustomWeather, © 2016

Note: Actual official high and low records may vary slightly from our data, if they occured in-between our weather recording intervals... More about our weather records

Advertising

Yokosuka Weather History for the Previous 24 Hours

Scroll right to see more
 ConditionsComfort  
Time TempWeatherWind HumidityBarometerVisibility
10:00 AM
Wed, Jun 29
70 °FBroken clouds.9 mph88%29.98 "HgN/A
9:30 AM70 °FPartly sunny.8 mph88%29.98 "HgN/A
9:00 AM70 °FPartly sunny.9 mph88%29.98 "HgN/A
8:30 AM70 °FPartly sunny.10 mph88%29.98 "HgN/A
8:00 AM70 °FPartly sunny.9 mph88%29.98 "Hg4 mi
7:30 AM70 °FBroken clouds.9 mph88%29.98 "Hg4 mi
7:00 AM70 °FBroken clouds.9 mph88%29.98 "Hg4 mi
6:30 AM70 °FBroken clouds.9 mph88%29.98 "HgN/A
6:00 AM70 °FBroken clouds.7 mph88%29.98 "HgN/A
5:30 AM70 °FBroken clouds.7 mph88%29.98 "HgN/A
5:00 AM70 °FBroken clouds.7 mph88%29.95 "HgN/A
4:30 AM70 °FLight rain. Broken clouds.7 mph88%29.95 "Hg6 mi
4:00 AM70 °FLight rain. Partly cloudy.7 mph88%29.92 "HgN/A
3:30 AM70 °FLight rain. Partly cloudy.7 mph88%29.92 "HgN/A
3:00 AM70 °FPartly cloudy.6 mph88%29.92 "HgN/A
2:30 AM70 °FPartly cloudy.7 mph88%29.92 "HgN/A
2:00 AM70 °FPartly cloudy.7 mph88%29.92 "HgN/A
1:30 AM70 °FPartly cloudy.7 mph88%29.92 "HgN/A
1:00 AM70 °FPartly cloudy.6 mph88%29.92 "HgN/A
12:30 AM70 °FPassing clouds.5 mph88%29.92 "HgN/A
12:00 AM70 °FPassing clouds.6 mph88%29.92 "HgN/A
11:30 PM
Tue, Jun 28
70 °FPartly cloudy.8 mph88%29.92 "HgN/A
11:00 PM70 °FPartly cloudy.7 mph88%29.92 "HgN/A
10:30 PM70 °FPassing clouds.5 mph88%29.92 "HgN/A
10:00 PM70 °FPassing clouds.5 mph88%29.92 "HgN/A
9:30 PM68 °FPartly cloudy.3 mph94%29.95 "HgN/A
9:00 PM68 °FPassing clouds.5 mph94%29.92 "HgN/A
8:30 PM68 °FPassing clouds.3 mph94%29.92 "HgN/A
8:00 PM68 °FPartly cloudy.5 mph94%29.92 "HgN/A
7:30 PM68 °FPartly cloudy.8 mph94%29.89 "HgN/A
7:00 PM68 °FLight rain. Fog.6 mph94%29.89 "HgN/A
6:30 PM70 °FLight rain. Fog.6 mph88%29.89 "HgN/A
6:00 PM68 °FBroken clouds.6 mph94%29.86 "HgN/A
5:30 PM70 °FBroken clouds.6 mph88%29.86 "HgN/A
5:00 PM68 °FLight rain. Broken clouds.5 mph94%29.86 "HgN/A
4:30 PM70 °FLight rain. Broken clouds.5 mph88%29.86 "HgN/A
4:00 PM68 °FBroken clouds.6 mph94%29.83 "HgN/A
3:30 PM68 °FBroken clouds.6 mph94%29.83 "HgN/A
3:00 PM68 °FBroken clouds.3 mph94%29.83 "HgN/A
2:30 PM68 °FLight rain. Broken clouds.5 mph94%29.83 "HgN/A
2:00 PM68 °FBroken clouds.3 mph88%29.83 "HgN/A
1:30 PM66 °FSprinkles. Broken clouds.6 mph94%29.83 "HgN/A
1:00 PM66 °FSprinkles. Broken clouds.7 mph94%29.83 "HgN/A
12:30 PM66 °FSprinkles. Broken clouds.8 mph94%29.83 "HgN/A
12:00 PM66 °FSprinkles. Broken clouds.7 mph94%29.86 "HgN/A
11:45 AM66 °FSprinkles. Partly sunny.7 mph94%29.86 "HgN/A
11:30 AM66 °FSprinkles. Broken clouds.9 mph94%29.86 "HgN/A
11:00 AM66 °FLight rain. Partly sunny.9 mph94%29.86 "Hg6 mi
Weather by CustomWeather, © 2016

See weather overviewHow to use our weather pages